Simultaneous Nadir Overpasses (SNOs) Predictions

Prediction of SNOs between METOP-A and TERRA Satellite Orbit:

Table of predicted SNOs for the next 14.0 days since TLE Epoch: 12/6/2014
Index Date (METOP-A) Time (METOP-A) Lat,Lon (METOP-A) SZA (METOP-A ) Date (TERRA) Time (TERRA) Lat,Lon (TERRA) SZA (TERRA ) Distance(km) Time Diff (sec)
1 12/07/2014 13:03:33 -81.30,-148.63 73.21 12/07/2014 13:04:07 -81.31,-148.57 73.18 1.34 34
2 12/07/2014 13:54:12 81.31, 19.28 106.87 12/07/2014 13:53:33 81.32, 19.18 106.84 1.71 39
3 12/10/2014 08:37:55 -81.30, -82.54 73.00 12/10/2014 08:38:20 -81.30, -82.41 72.98 2.28 25
4 12/10/2014 09:28:34 81.31, 85.34 107.07 12/10/2014 09:27:46 81.30, 85.33 107.04 0.73 48
5 12/13/2014 04:12:16 -81.30, -15.75 72.77 12/13/2014 04:12:32 -81.30, -15.80 72.77 0.87 16
6 12/13/2014 05:02:56 81.31, 151.72 107.25 12/13/2014 05:01:58 81.31, 151.92 107.25 3.24 58
7 12/15/2014 23:46:38 -81.30, 50.57 72.66 12/15/2014 23:46:44 -81.30, 50.50 72.67 1.54 6
8 12/16/2014 00:37:17 81.31,-141.58 107.41 12/16/2014 00:36:09 81.32,-141.43 107.40 2.79 68
9 12/18/2014 18:30:18 81.30, -50.63 107.38 12/18/2014 18:31:27 81.29, -50.73 107.39 1.73 69




NCC Satellite Simultaneous Nadir Overpasses (SNOs) Prediction Service
